#timestamp,LO_Frequency,Hit,StdDev 
1621893615.4,286047000.8,N
1621893635.3,286047001.1,N
1621893655.1,286047000.7,N
1621893675.8,286046999.8,N
1621893695.7,286047001.6,N
1621893715.5,286047000.1,N
1621893735.4,286047001.5,N
1621893755.2,286047011.9,Y
1621893775.0,286047002.8,P
1621893775.9,286047002.8,N
1621893795.8,286047002.1,N
1621893815.6,286047000.1,N
1621893835.4,286047000.1,N
1621893855.3,286047001.2,N
1621893875.1,286047001.0,N
1621893895.9,286047000.4,N
1621893915.7,286046999.9,N
1621893935.5,286047001.9,N
1621893955.4,286047000.2,N
1621893975.2,286046999.8,N
1621893995.0,286047000.5,N
1621893995.9,286047000.5,N
1621894015.8,286046998.7,N
1621894035.6,286046997.2,N
1621894055.5,286046998.9,N
1621894075.3,286046999.3,N
1621894095.1,286046998.7,N
1621894115.9,286047001.1,N
1621894135.7,286047000.6,N
1621894155.6,286047000.5,N
1621894175.4,286047000.0,N
1621894195.2,286047000.8,N
1621894215.1,286047000.1,N
1621894216.0,286047000.1,N
1621894235.8,286047000.0,N
1621894255.6,286046999.9,N
1621894275.5,286046999.8,N
1621894295.3,286046998.9,N
1621894315.2,286046999.2,N
1621894335.9,286046999.2,N
1621894355.7,286047001.0,N
1621894375.6,286047002.1,N
1621894395.4,286047002.6,N
1621894415.2,286047001.5,N
1621894435.1,286047002.8,N
1621894436.0,286047002.8,N
1621894455.8,286046999.9,N
1621894475.7,286047001.6,N
1621894495.5,286047008.6,Y
1621894515.3,286047006.0,P
1621894535.2,286047007.4,N
1621894555.0,286047003.2,N
1621894555.9,286047003.2,N
1621894575.8,286047004.3,N
1621894595.6,286047005.1,N
1621894615.4,286047003.6,N
1621894635.3,286047002.5,N
1621894655.1,286046998.2,N
1621894675.8,286047000.8,N
1621894695.7,286047000.2,N
1621894715.5,286047002.4,N
1621894735.4,286047001.6,N
1621894755.2,286047001.8,N
1621894775.0,286047002.0,N
1621894775.9,286047002.0,N
1621894795.8,286047001.3,N
1621894815.6,286047002.5,N
1621894835.4,286047000.2,N
1621894855.3,286046999.9,N
1621894875.1,286047000.1,N
1621894895.9,286047000.1,N
1621894915.7,286047002.0,N
1621894935.5,286047000.5,N
1621894955.4,286046998.0,N
1621894975.2,286046995.1,N
1621894995.0,286046997.7,N
1621894995.9,286046997.7,N
1621895015.8,286046999.2,N
1621895035.6,286046998.2,N
1621895055.5,286046998.6,N
1621895075.3,286047000.5,N
1621895095.1,286046999.7,N
1621895115.9,286047000.8,N
1621895135.7,286047000.5,N
1621895155.5,286047001.1,N
1621895175.4,286047000.7,N
1621895195.2,286047000.8,N
1621895215.1,286047002.4,N
1621895216.0,286047002.4,N
1621895235.8,286047001.3,N
1621895255.6,286047001.4,N
1621895275.5,286046998.6,N
1621895295.3,286046996.6,N
1621895315.2,286046998.2,N
1621895335.9,286047000.9,N
1621895355.7,286047000.0,N
1621895375.6,286047000.4,N
1621895395.4,286046998.5,N
1621895415.2,286047002.4,N
1621895435.1,286047002.6,N
1621895436.0,286047002.6,N
1621895455.8,286047001.3,N
1621895475.7,286047002.0,N
1621895495.5,286046999.9,N
1621895515.3,286046998.2,N
1621895535.2,286047000.9,N
1621895555.0,286047001.1,N
1621895555.9,286047001.1,N
1621895575.8,286047000.6,N
1621895595.6,286046998.1,N
1621895615.4,286047000.6,N
1621895635.3,286046998.5,N
1621895655.1,286046997.1,N
1621895675.9,286046998.0,N
1621895695.7,286046998.8,N
1621895715.5,286046996.9,N
1621895735.4,286046995.0,N
1621895755.2,286046996.0,N
1621895775.0,286046997.7,N
1621895775.9,286046997.7,N
1621895795.8,286047001.0,N
1621895815.6,286047002.6,N
1621895835.5,286047000.3,N
1621895855.3,286046999.6,N
1621895875.1,286046998.5,N
1621895895.9,286047000.8,N
1621895915.7,286047000.6,N
1621895935.6,286046999.7,N
1621895955.4,286047002.1,N
1621895975.2,286047001.7,N
1621895995.1,286047003.9,N
1621895996.0,286047003.9,N
1621896015.8,286047002.0,N
1621896035.7,286047001.4,N
1621896055.5,286047001.9,N
1621896075.3,286047002.9,N
1621896095.2,286047004.2,N
1621896115.0,286047004.0,N
1621896115.9,286047004.0,N
1621896135.7,286047002.2,N
1621896155.6,286047000.4,N
1621896175.4,286047000.5,N
1621896195.3,286047000.9,N
1621896215.1,286047001.5,N
1621896216.0,286047001.5,N
1621896235.8,286047004.0,N
1621896255.7,286047002.2,N
1621896275.5,286047002.2,N
1621896295.3,286047001.8,N
1621896315.2,286047003.7,N
1621896335.0,286047002.8,N
1621896335.9,286047002.8,N
1621896355.8,286047000.2,N
1621896375.6,286047000.8,N
1621896395.4,286047000.1,N
1621896415.3,286047002.3,N
1621896435.1,286047004.4,Y
1621896455.9,286047000.9,P
1621896475.7,286046999.2,N
1621896495.5,286046999.5,N
1621896515.4,286047000.8,N
1621896535.2,286046998.3,N
1621896555.0,286047000.8,N
1621896555.9,286047000.8,N
1621896575.8,286047000.6,N
1621896595.6,286047002.3,N
1621896615.5,286047002.5,N
1621896635.3,286047002.8,N
1621896655.1,286047001.9,N
1621896675.9,286047001.2,N
1621896695.7,286047000.1,N
1621896715.5,286047001.1,N
1621896735.4,286046998.1,N
1621896755.2,286046995.0,Y
1621896775.1,286046999.3,P
1621896776.0,286046999.3,N
1621896795.8,286046998.4,N
1621896815.6,286047001.1,N
1621896835.5,286047001.2,N
1621896855.3,286047000.3,N
1621896875.2,286047002.8,N
1621896895.9,286047001.3,N
1621896915.7,286046998.3,N
1621896935.6,286046998.2,N
1621896955.4,286046999.0,N
1621896975.3,286046998.3,N
1621896995.1,286046998.7,N
1621896996.0,286046998.7,N
1621897015.8,286047000.9,N
1621897035.7,286047000.5,N
1621897055.5,286047000.3,N
1621897075.3,286046998.5,N
1621897095.2,286047000.3,N
1621897115.0,286047001.6,N
1621897146.0,286046999.5,E
1621897155.9,286046999.5,N
1621897175.7,286046999.5,P
1621897195.5,286046997.2,P
